Weather History for FBFT - January, 2013

Change the Weather History Date:

Wednesday, January 9, 2013

  Actual Average Record
Temperature  
Mean Temperature 78 °F -  
Max Temperature 93 °F 85 °F 95 °F (2001)
Min Temperature 64 °F 66 °F 57 °F (2015)
Cooling Degree Days 14    
Growing Degree Days 28 (Base 50)    
Moisture  
Dew Point 60 °F    
Average Humidity 53    
Maximum Humidity 88    
Minimum Humidity 19    
Precipitation  
Precipitation 0.00 in - - ()
Sea Level Pressure  
Sea Level Pressure 29.98 in    
Wind  
Wind Speed 5 mph ()    
Max Wind Speed 14 mph    
Max Gust Speed -    
Visibility 6.1 miles    
Events      
Averages and records for this station are not official NWS values.
T = Trace of Precipitation, MM = Missing Value Source: Averaged Metar Reports

Daily Weather History Graph

Daily Weather History Graph

Search for Another Location

Airport or City:

Trip Planner

Search our weather history database for the weather conditions in past years. The results will help you decide how hot, cold, wet, or windy it might be!

Date:

Astronomy

Jan. 09, 2013 Rise Set
Actual Time 5:37 AM CAT 6:57 PM CAT
Civil Twilight 5:12 AM CAT 7:21 PM CAT
Nautical Twilight 4:43 AM CAT 7:50 PM CAT
Astronomical Twilight 4:13 AM CAT 8:21 PM CAT
Moon 2:58 AM CAT (1/9) 4:37 PM CAT (1/9)
Length of Visible Light 14h 09m
Length of Day
13h 20m
Waning Crescent, 8% of the Moon is Illuminated
Jan 9
Waning Crescent
Jan 11
New
Jan 19
First Quarter
Jan 27
Full
Feb 3
Last Quarter

Hourly Weather History & Observations

Time (CAT) Temp. Heat Index Dew Point Humidity Pressure Visibility Wind Dir Wind Speed Gust Speed Precip Events Conditions
12:00 AM 75.2 °F - 62.6 °F 65% 30.06 in - ENE 11.5 mph - N/A   Clear
1:00 AM 73.4 °F - 62.6 °F 69% 30.04 in - ENE 5.8 mph - N/A   Clear
2:00 AM 71.6 °F - 62.6 °F 73% 30.04 in - North 2.3 mph - N/A   Clear
3:00 AM 71.6 °F - 62.6 °F 73% 30.01 in - NNE 1.2 mph - N/A   Clear
4:00 AM 69.8 °F - 62.6 °F 78% 30.01 in - NNE 1.2 mph - N/A   Clear
5:00 AM 64.4 °F - 60.8 °F 88% 30.01 in - NE 2.3 mph - N/A   Clear
6:00 AM 64.4 °F - 60.8 °F 88% 30.04 in - Variable 1.2 mph - N/A   Clear
7:00 AM 68.0 °F - 62.6 °F 83% 30.04 in - Variable 1.2 mph - N/A   Clear
8:00 AM 73.4 °F - 62.6 °F 69% 30.04 in - SE 3.5 mph - N/A   Clear
9:00 AM 78.8 °F - 60.8 °F 54% 30.04 in - East 9.2 mph - N/A   Clear
10:00 AM 80.6 °F 81.1 °F 59.0 °F 48% 30.04 in - NE 9.2 mph - N/A   Clear
11:00 AM 84.2 °F 84.4 °F 60.8 °F 45% 30.01 in - Variable 1.2 mph - N/A   Clear
12:00 PM 86.0 °F 85.4 °F 59.0 °F 40% 30.01 in - SE 13.8 mph - N/A   Clear
1:00 PM 87.8 °F 86.5 °F 57.2 °F 35% 29.98 in - East 11.5 mph - N/A   Clear
2:00 PM 91 °F - 54 °F 19%  in 6 mi ESE 12.7 mph - -  
2:00 PM 91.4 °F 89.1 °F 53.6 °F 28% 29.95 in - ESE 12.7 mph - N/A   Clear
3:00 PM 91.4 °F 89.9 °F 57.2 °F 31% 29.92 in - SE 3.5 mph - N/A   Clear
4:00 PM 93.2 °F 91.9 °F 57.2 °F 30% 29.89 in - ENE 9.2 mph - N/A   Clear
5:00 PM 91.4 °F 89.1 °F 53.6 °F 28% 29.86 in 6.2 mi ESE 3.5 mph - N/A   Partly Cloudy
6:00 PM 91.4 °F 89.4 °F 55.4 °F 29% 29.86 in 6.2 mi East 3.5 mph - N/A   Partly Cloudy
7:00 PM 91.4 °F 89.1 °F 53.6 °F 28% 29.89 in 6.2 mi ENE 3.5 mph - N/A   Partly Cloudy
8:00 PM 82.4 °F 83.9 °F 64.4 °F 54% 29.89 in - Variable 2.3 mph - N/A   Clear
9:00 PM 77.0 °F - 60.8 °F 57% 29.92 in - WNW 3.5 mph - N/A   Clear
10:00 PM 77.0 °F - 60.8 °F 57% 29.92 in - South 1.2 mph - N/A   Clear
11:00 PM 75.2 °F - 60.8 °F 61% 29.95 in - ENE 2.3 mph - N/A   Clear